Vertical_Velocity
1 -0 0 0 -1 -0 -2 -2 -0 1 -2 -2 -0 -0 1 0 1 -1 1 -0 -2 -2 -2 -1 2 -1 1 -2 0 -0 -2 -2 -1 -2 -2 -2 -2 -0 -2 -2 -3 -4 -4
-1 1 -0 -1 -2 -1 0 -2 1 -0 -1 0 1 -2 -0 1 -2 -1 -0 -1 -2 1 -2 -0 2 -2 1 -2 -1 -1 -3 1 -2 -2 -2 -1 -2 -1 -1 -3 -2 -3 -2
-1 2 -0 0 1 2 -2 0 -1 -0 -2 0 -1 -1 0 -0 -1 -2 -0 -1 -1 -1 0 -1 -0 -2 -0 -1 -2 -2 -1 -1 -2 -2 -2 -2 -2 -2 -1 -2 -3 -2 -1
2 -3 1 -0 -1 3 1 1 -0 -0 -1 -1 -1 -1 -1 0 -1 1 0 -0 0 1 -1 -1 1 -2 -3 -2 -1 -2 0 -2 -2 -3 -3 -2 -2 -1 -2 -2 -2 -1 -0
1 1 0 2 0 0 0 1 -0 1 1 1 1 1 1 1 1 1 1 -1 -1 -0 -0 -0 -1 -3 -2 -0 -1 -0 -1 -1 -2 -3 -4 -3 -1 -2 -1 -1 -1 -3 -2
-1 0 -1 1 -0 0 0 -1 -1 -1 0 -1 -1 -1 -1 0 -0 0 -2 -0 1 -0 -1 -1 -2 -0 -1 -1 -0 -1 -2 -2 -2 -2 -3 -2 -2 -2 -2 -2 -2 -2 -1
-1 0 0 -2 1 0 0 -1 0 1 2 1 0 1 0 0 0 -0 -0 -1 -0 -1 -1 -1 -0 -0 -1 -1 -1 -1 -2 -2 -2 -1 -1 -2 -1 -1 -1 -1 -2 -2 -3
-1 -0 -0 0 -1 -1 -0 -1 -1 -1 0 -0 -0 -0 0 0 -1 -1 -1 -0 -1 -1 0 -0 -1 -1 -0 -0 -1 -0 -1 -2 -2 -1 -1 -1 -1 -1 -1 -2 -2 -2 -2
-0 -1 -1 0 -0 -1 -1 0 0 -1 0 -0 -1 -1 -2 -3 4 -1 -1 -0 -0 0 -1 -1 -1 -1 -0 -1 -1 -0 -2 -0 -1 -2 -2 -2 -2 -2 -2 -2 -2 -2 -1
-0 -1 -1 -1 0 -0 -1 -0 -0 -1 -0 0 0 -0 -1 -1 -2 0 -1 -1 -0 -1 -1 -0 -1 -1 -1 -1 -0 -0 0 -1 -1 -1 -1 -1 -2 -2 -1 -1 -1 -1 -1
0 -0 -1 -0 -0 1 -0 -1 -1 -1 -2 -2 0 -1 -2 -0 -0 -2 -2 -0 1 -2 -0 -1 -1 -1 -0 -1 -1 1 -3 -2 -2 -1 -1 -1 -1 -1 -0 -2 -0 -2 -3
0 1 1 0 -1 -0 -1 -1 -2 -1 -1 -2 -1 -1 -1 -1 -0 -0 -2 0 -3 -3 2 -1 -1 -1 -1 -0 -1 -0 -0 -1 -1 -0 -2 -1 -1 -2 -1 0 -2 -1 -2
1 1 -0 -1 -0 -2 -2 -1 -0 -1 -1 -1 -2 -0 0 1 -1 -1 -2 2 -2 -1 -3 0 -1 -0 -1 -1 -0 -0 -1 0 -1 -0 -0 -1 -1 -1 -0 -2 -2 -3 -2
-1 -0 -1 -1 -2 -2 -2 -1 -1 -0 -1 -0 -1 -1 -2 1 -1 -0 0 -1 -0 -3 2 2 3 -2 -1 -0 0 0 1 0 0 0 0 -1 -1 -1 -1 -1 -2 -1 -1
-2 -0 -1 -2 -2 -1 0 -0 -1 1 -2 -1 1 -1 -1 1 -1 0 -0 -1 -3 -3 -1 -3 1 3 -2 -1 -2 -2 -3 2 -2 0 -0 -0 -1 -2 -1 -1 -2 -5 -5
-1 0 0 -2 -1 -1 -2 -1 -1 1 -0 1 0 -0 0 2 -0 1 1 1 0 -1 -9 5 -4 6 -1 0 1 1 1 1 1 1 1 1 1 1 1 1 -3 -3 0
-2 -1 0 1 -0 0 -1 -3 -2 0 -1 1 2 1 1 1 -0 -1 -0 1 1 0 -6 4 -4 -1 4 -1 -0 0 -1 1 0 0 -0 -0 0 -1 -1 -0 -0 0 -2
-1 -4 -2 -2 -3 -3 1 -2 -0 -1 -0 -0 1 -1 2 -0 -1 -0 -1 2 -1 1 -3 -2 -1 1 0 0 -1 1 2 0 -1 1 2 -0 -2 -0 -1 -2 0 -0 -2
11 3 -3 -1 -1 0 -3 1 0 1 -0 2 2 -0 0 4 0 1 1 -1 0 0 -1 -3 1 -5 2 -1 2 -3 -0 -1 0 -2 1 -1 3 -1 -1 -1 -4 -4 -1
2 -0 2 6 0 5 1 1 -1 1 1 2 3 1 2 -1 2 3 1 2 2 0 2 -4 0 -2 1 -3 -1 -1 -3 -2 -2 2 1 -2 -1 -2 0 2 1 -3 -2
1 4 3 1 4 2 2 -4 10 -5 1 1 0 1 3 2 1 3 -1 1 1 1 -1 -3 -3 -1 0 -0 -0 -0 -5 3 -2 7 10 13 -2 -2 -6 1 3 2 2
1 1 -2 1 7 1 5 12 -7 -3 -0 -1 0 2 -0 2 2 1 0 1 2 0 -4 -2 2 -9 2 -3 -0 1 1 -2 -12 11 9 22 -4 -3 -2 4 -1 -2 -2
2 -1 -1 -3 0 -2 -4 -5 -4 -4 -1 1 3 3 2 3 5 3 3 -1 4 -2 -1 1 -4 0 -1 4 11 16 10 -8 14 0 6 -6 -2 0 -2 6 -3 2 -1
4 6 5 4 5 3 -1 6 3 1 1 -0 -1 1 -0 2 2 0 8 7 -2 -3 3 7 -3 -3 -9 3 -4 2 -2 -2 3 10 -1 -4 7 3 -1 5 -8 -2 1
2 5 3 2 3 7 9 2 1 -4 -4 -2 6 4 -4 6 3 12 11 -1 -7 -1 21 -12 9 19 -1 -1 1 15 4 4 -11 -1 8 -3 2 6 -5 2 3 -4 1
1 -2 -1 3 4 14 2 5 1 5 4 -1 -10 9 4 3 -0 14 -4 -4 -9 6 2 1 1 -2 2 4 -4 4 3 7 9 1 16 -4 6 -0 -4 11 -1 -2 2
Height
3178 3180 3181 3182 3185 3186 3188 3190 3191 3192 3193 3194 3194 3195 3196 3196 3197 3197 3197 3196 3195 3196 3195 3194 3193 3192 3191 3189 3187 3185 3184 3182 3179 3177 3176 3173 3171 3169 3167 3164 3162 3159 3155
3179 3180 3181 3184 3185 3187 3189 3191 3192 3193 3193 3194 3194 3195 3196 3197 3198 3197 3197 3197 3196 3197 3196 3195 3194 3192 3191 3189 3187 3185 3183 3181 3178 3176 3174 3172 3170 3168 3165 3162 3159 3156 3153
3179 3181 3182 3184 3185 3188 3189 3191 3192 3193 3193 3194 3195 3195 3196 3196 3197 3197 3197 3197 3197 3196 3195 3194 3193 3192 3190 3189 3186 3184 3182 3180 3177 3175 3173 3171 3169 3165 3163 3159 3157 3153 3150
3179 3180 3182 3184 3185 3187 3188 3190 3191 3192 3192 3193 3194 3195 3195 3196 3196 3196 3196 3196 3196 3195 3194 3194 3192 3191 3189 3187 3185 3184 3181 3179 3176 3174 3172 3169 3166 3163 3160 3157 3154 3150 3147
3178 3180 3182 3183 3185 3186 3188 3189 3190 3190 3191 3192 3192 3193 3194 3194 3194 3195 3195 3195 3194 3193 3193 3192 3191 3189 3187 3185 3184 3182 3180 3177 3175 3173 3170 3167 3163 3160 3157 3154 3150 3147 3143
3177 3178 3180 3182 3184 3185 3186 3187 3188 3189 3189 3190 3190 3191 3192 3192 3193 3193 3193 3193 3192 3191 3191 3190 3188 3187 3185 3183 3182 3180 3178 3175 3173 3170 3167 3164 3161 3157 3154 3151 3147 3144 3140
3177 3178 3180 3181 3182 3183 3184 3185 3186 3187 3187 3188 3189 3188 3189 3189 3189 3190 3190 3190 3189 3189 3188 3187 3186 3184 3182 3181 3179 3178 3175 3173 3170 3167 3164 3161 3158 3155 3151 3148 3144 3140 3136
3175 3176 3178 3179 3180 3181 3182 3183 3184 3184 3185 3185 3186 3186 3186 3187 3187 3187 3187 3186 3186 3185 3185 3184 3182 3181 3180 3178 3176 3174 3172 3169 3166 3164 3161 3158 3155 3151 3148 3144 3140 3136 3131
3173 3174 3175 3177 3178 3179 3180 3181 3181 3182 3182 3182 3183 3184 3183 3183 3184 3183 3183 3183 3183 3182 3181 3180 3179 3178 3176 3175 3173 3171 3168 3166 3163 3160 3158 3155 3151 3148 3144 3141 3137 3133 3128
3170 3171 3172 3173 3174 3176 3176 3177 3178 3179 3179 3179 3180 3180 3180 3180 3180 3181 3180 3180 3179 3178 3178 3177 3176 3174 3173 3171 3169 3167 3165 3162 3160 3157 3154 3151 3147 3144 3140 3137 3133 3128 3123
3166 3168 3169 3170 3171 3172 3172 3173 3174 3175 3175 3176 3177 3177 3176 3176 3176 3176 3175 3175 3175 3174 3174 3173 3172 3170 3169 3167 3166 3164 3161 3158 3156 3153 3149 3146 3142 3139 3136 3132 3128 3123 3119
3163 3165 3166 3167 3167 3168 3169 3169 3170 3171 3171 3172 3172 3173 3173 3173 3172 3172 3171 3171 3170 3170 3171 3169 3168 3166 3165 3163 3161 3159 3157 3154 3151 3148 3145 3141 3138 3135 3131 3127 3123 3119 3114
3159 3161 3161 3162 3163 3163 3164 3165 3166 3166 3166 3167 3168 3168 3168 3168 3168 3168 3167 3167 3166 3166 3165 3165 3163 3162 3160 3158 3156 3154 3152 3149 3146 3143 3140 3137 3133 3129 3126 3122 3118 3114 3108
3155 3156 3157 3158 3158 3159 3159 3160 3161 3162 3162 3163 3163 3163 3163 3164 3163 3163 3162 3161 3161 3160 3160 3160 3159 3156 3154 3153 3151 3149 3147 3144 3141 3138 3135 3131 3128 3124 3121 3117 3112 3107 3102
3150 3152 3152 3153 3154 3154 3155 3155 3155 3156 3157 3157 3158 3158 3158 3159 3158 3158 3157 3156 3155 3154 3154 3153 3153 3152 3149 3147 3146 3144 3141 3140 3136 3133 3129 3125 3122 3118 3115 3110 3105 3100 3095
3143 3145 3146 3147 3148 3148 3149 3149 3150 3151 3150 3152 3152 3152 3152 3153 3152 3152 3151 3150 3149 3147 3146 3148 3145 3146 3143 3141 3140 3137 3135 3132 3129 3125 3122 3119 3116 3112 3108 3103 3099 3093 3087
3137 3139 3140 3141 3141 3143 3143 3143 3144 3145 3144 3145 3146 3146 3146 3146 3145 3145 3145 3144 3143 3141 3139 3142 3138 3137 3136 3134 3131 3130 3126 3124 3121 3118 3115 3112 3109 3106 3101 3096 3092 3087 3082
3131 3132 3133 3135 3135 3136 3137 3136 3137 3138 3137 3138 3139 3138 3139 3139 3138 3138 3138 3138 3136 3135 3132 3132 3131 3130 3128 3126 3123 3122 3119 3117 3113 3110 3108 3105 3102 3098 3094 3089 3085 3080 3074
3124 3125 3125 3127 3128 3129 3129 3129 3129 3129 3129 3130 3130 3130 3131 3131 3130 3130 3129 3128 3128 3126 3124 3122 3122 3120 3119 3117 3115 3113 3111 3108 3105 3101 3100 3097 3094 3091 3086 3082 3077 3072 3067
3115 3116 3118 3119 3120 3121 3121 3121 3121 3121 3121 3121 3121 3121 3121 3121 3121 3121 3120 3120 3119 3116 3115 3112 3112 3111 3109 3107 3105 3103 3101 3098 3096 3095 3092 3088 3085 3081 3077 3072 3068 3064 3059
3106 3108 3109 3110 3111 3112 3112 3112 3113 3111 3111 3111 3111 3111 3112 3112 3112 3112 3111 3110 3108 3106 3104 3102 3101 3099 3098 3097 3097 3094 3091 3088 3087 3085 3082 3080 3075 3072 3068 3063 3059 3055 3051
3096 3097 3098 3100 3101 3102 3102 3103 3101 3101 3101 3101 3101 3102 3102 3102 3102 3101 3101 3100 3099 3096 3094 3092 3092 3088 3088 3087 3086 3083 3080 3078 3074 3077 3070 3067 3065 3062 3059 3055 3051 3046 3043
3085 3086 3087 3088 3090 3090 3090 3090 3090 3091 3091 3090 3090 3090 3091 3091 3091 3091 3090 3089 3088 3085 3083 3082 3079 3078 3077 3078 3073 3071 3070 3067 3063 3062 3060 3056 3055 3052 3047 3045 3042 3037 3032
3074 3075 3076 3077 3078 3079 3079 3078 3079 3079 3078 3078 3078 3078 3078 3078 3078 3079 3079 3076 3075 3074 3073 3072 3068 3067 3065 3065 3063 3059 3059 3055 3051 3050 3048 3044 3044 3041 3037 3034 3032 3028 3023
3060 3061 3062 3063 3064 3065 3065 3065 3066 3066 3066 3066 3066 3066 3065 3064 3065 3066 3064 3062 3061 3059 3059 3060 3058 3054 3053 3051 3050 3047 3046 3042 3039 3036 3036 3033 3033 3028 3026 3024 3021 3018 3013
3048 3049 3050 3050 3050 3050 3051 3051 3052 3051 3052 3052 3051 3051 3051 3050 3050 3051 3048 3047 3045 3047 3046 3044 3042 3042 3039 3039 3036 3035 3033 3031 3028 3025 3026 3022 3022 3019 3015 3014 3011 3006 3002